Ames, IA

9:53 PM CDT on October 18, 2017 (GMT -0500)
Ames Municipal

Weather History for KAMW - November, 2012

Change the Weather History Date:

Tuesday, November 20, 2012

  Actual Average Record
Temperature  
Mean Temperature 46 °F 34 °F  
Max Temperature 60 °F 43 °F 69 °F (2003)
Min Temperature 32 °F 25 °F 5 °F (2014)
Degree Days  
Heating Degree Days 19 31  
Month to date heating degree days 423 518  
Since 1 July heating degree days 1075 1114  
Cooling Degree Days 0 0  
Month to date cooling degree days 0 0  
Year to date cooling degree days 1067 752  
Moisture  
Dew Point 36 °F    
Average Humidity 76    
Maximum Humidity 100    
Minimum Humidity 51    
Precipitation  
Precipitation 0.00 in 0.05 in 1.58 in (1992)
Month to date precipitation 1.10 1.61  
Sea Level Pressure  
Sea Level Pressure 30.16 in    
Wind  
Wind Speed 5 mph (NW)    
Max Wind Speed 13 mph    
Max Gust Speed 16 mph    
Visibility 6 miles    
Events      
T = Trace of Precipitation, MM = Missing Value Source: NWS Daily Summary

Daily Weather History Graph

Daily Weather History Graph

Search for Another Location

Airport or City:

Trip Planner

Search our weather history database for the weather conditions in past years. The results will help you decide how hot, cold, wet, or windy it might be!

Date:

Astronomy

Nov. 20, 2012 Rise Set
Actual Time 7:11 AM CST 4:49 PM CST
Civil Twilight 6:40 AM CST 5:19 PM CST
Nautical Twilight 6:06 AM CST 5:53 PM CST
Astronomical Twilight 5:33 AM CST 6:26 PM CST
Moon 12:42 PM CST (11/20) No Moon Set
Length of Visible Light 10h 38m
Length of Day
9h 38m
First Quarter, 51% of the Moon is Illuminated
Nov 20
First Quarter
Nov 28
Full
Dec 6
Last Quarter
Dec 13
New
Dec 19
First Quarter

Hourly Weather History & Observations

Time (CST) Temp. Windchill Dew Point Humidity Pressure Visibility Wind Dir Wind Speed Gust Speed Precip Events Conditions
12:53 AM 39.9 °F 35.8 °F 37.0 °F 89% 30.06 in 8.0 mi NW 5.8 mph - N/A   Clear
2:53 AM 39.0 °F 34.0 °F 36.0 °F 89% 30.09 in 6.0 mi NNW 6.9 mph - N/A   Clear
3:53 AM 39.9 °F 33.9 °F 36.0 °F 86% 30.10 in 6.0 mi NNW 9.2 mph - N/A   Clear
4:53 AM 39.0 °F 32.8 °F 36.0 °F 89% 30.12 in 5.0 mi North 9.2 mph - N/A   Clear
5:53 AM 37.9 °F 31.5 °F 35.1 °F 89% 30.14 in 5.0 mi NNW 9.2 mph - N/A   Clear
6:53 AM 36.0 °F 29.6 °F 34.0 °F 93% 30.17 in 5.0 mi NNW 8.1 mph - N/A   Clear
7:53 AM 36.0 °F 29.6 °F 34.0 °F 93% 30.18 in 3.0 mi NNW 8.1 mph - N/A   Clear
8:53 AM 39.0 °F 34.0 °F 35.1 °F 86% 30.19 in 3.0 mi NNW 6.9 mph - N/A   Clear
9:53 AM 44.1 °F 39.0 °F 37.9 °F 79% 30.20 in 4.0 mi NW 9.2 mph - N/A   Haze
10:53 AM 48.9 °F - 39.9 °F 71% 30.20 in 6.0 mi North 5.8 mph - N/A   Haze
11:53 AM 53.1 °F - 41.0 °F 64% 30.18 in 6.0 mi NW 3.5 mph - N/A   Haze
12:53 PM 55.9 °F - 42.1 °F 60% 30.16 in 7.0 mi NW 6.9 mph - N/A   Clear
1:53 PM 57.9 °F - 42.1 °F 56% 30.15 in 8.0 mi NW 8.1 mph - N/A   Clear
2:53 PM 59.0 °F - 41.0 °F 51% 30.14 in 10.0 mi NW 4.6 mph - N/A   Clear
3:53 PM 57.9 °F - 39.0 °F 49% 30.15 in 10.0 mi Calm Calm - N/A   Clear
4:53 PM 46.9 °F - 37.9 °F 71% 30.15 in 9.0 mi SW 4.6 mph - N/A   Clear
5:53 PM 42.1 °F 39.2 °F 36.0 °F 79% 30.17 in 9.0 mi SSW 4.6 mph - N/A   Clear
6:53 PM 41.0 °F - 35.1 °F 79% 30.18 in 7.0 mi Calm Calm - N/A   Clear
7:53 PM 39.0 °F - 34.0 °F 82% 30.18 in 8.0 mi Calm Calm - N/A   Clear
8:53 PM 36.0 °F - 33.1 °F 89% 30.18 in 7.0 mi Calm Calm - N/A   Clear
9:53 PM 34.0 °F - 33.1 °F 96% 30.18 in 6.0 mi Calm Calm - N/A   Clear
10:53 PM 33.1 °F - 32.0 °F 96% 30.17 in 5.0 mi Calm Calm - N/A   Clear
11:53 PM 32.0 °F 28.7 °F 30.9 °F 96% 30.16 in 3.0 mi SE 3.5 mph - N/A   Clear